Location: ??
(35.5052°N, 139.7262°E)
Time: 02:46:50
(UTC+00:00)

Meteor 2-10 Rocket - Visible Passes

Search period start: 23 October 2021 00:00
Search period end: 02 November 2021 00:00
Orbit: 733 x 885 km, 81.2° (Epoch: 22 October)

Date Brightness Start Highest point End Pass type
(mag) Time Alt. Az. Time Alt. Az. Time Alt. Az.
23 Oct 3.7 09:25:34 10° S 09:31:13 85° W 09:36:41 10° N visible
23 Oct 4.5 20:02:55 10° N 20:07:46 48° ENE 20:12:35 10° SSE visible
24 Oct 3.6 09:01:19 10° S 09:06:53 68° E 09:12:16 10° NNE visible
24 Oct 6.6 10:46:50 10° W 10:49:21 13° WNW 10:51:50 10° NW visible
24 Oct 5.3 19:38:49 10° NNE 19:43:19 32° ENE 19:47:47 10° SE visible
25 Oct 3.9 08:37:16 10° SSE 08:42:36 46° E 08:47:44 10° NNE visible
25 Oct 6.2 10:20:58 10° WSW 10:24:48 19° WNW 10:28:33 10° NNW visible
25 Oct 5.9 19:14:55 10° NNE 19:18:50 22° ENE 19:22:43 10° SE visible
26 Oct 4.3 08:13:26 10° SSE 08:18:19 32° E 08:23:03 10° NNE visible
26 Oct 5.7 09:55:41 10° SW 10:00:18 27° WNW 10:04:48 10° NNW visible
26 Oct 6.3 18:51:22 10° NE 18:54:17 15° ENE 18:57:12 10° ESE visible
26 Oct 3.7 20:31:47 10° NNW 20:36:34 47° W 20:41:21 10° SSW visible
27 Oct 5.1 09:30:43 10° SW 09:35:51 37° WNW 09:40:48 10° N visible
27 Oct 6.7 18:29:13 10° ENE 18:29:42 10° ENE 18:30:10 10° ENE visible
27 Oct 3.4 20:07:16 10° NNW 20:12:15 71° W 20:17:15 10° S visible
28 Oct 4.4 09:06:01 10° SSW 09:11:26 54° W 09:16:40 10° N visible
28 Oct 3.5 19:42:52 10° N 19:47:53 78° E 19:52:56 10° SSE visible
29 Oct 3.8 08:41:31 10° SSW 08:47:03 79° W 08:52:22 10° N visible
29 Oct 4.2 19:18:36 10° N 19:23:30 52° E 19:28:24 10° SSE visible
30 Oct 3.6 08:17:13 10° S 08:22:42 73° E 08:27:59 10° NNE visible
30 Oct 6.6 10:03:24 10° W 10:05:12 12° WNW 10:06:59 10° NW visible
30 Oct 5.0 18:54:28 10° N 18:59:03 35° ENE 19:03:39 10° SE visible
30 Oct 4.7 20:37:13 10° NW 20:40:47 20° W 20:44:24 10° SW visible
31 Oct 6.4 09:37:12 10° WSW 09:40:38 17° WNW 09:44:01 10° NNW visible
31 Oct 5.6 18:30:31 10° NNE 18:34:35 24° ENE 18:38:39 10° SE visible
31 Oct 4.2 20:12:15 10° NNW 20:16:33 29° W 20:20:53 10° SSW visible
01 Nov 5.9 09:11:48 10° SW 09:16:08 24° WNW 09:20:21 10° NNW visible
01 Nov 6.1 18:06:51 10° NNE 18:10:03 17° ENE 18:13:15 10° ESE visible
01 Nov 3.7 19:47:32 10° NNW 19:52:16 43° W 19:57:04 10° SSW visible
